TimeEST,TemperatureF,Dew PointF,Humidity,Sea Level PressureIn,VisibilityMPH,Wind Direction,Wind SpeedMPH,Gust SpeedMPH,PrecipitationIn,Events,Conditions,WindDirDegrees,DateUTC
12:24 AM,32.0,23.0,69,29.95,10.0,West,11.5,21.9,N/A,,Overcast,280,2013-02-12 05:24:00
12:53 AM,32.0,23.0,69,29.98,10.0,West,19.6,26.5,N/A,,Overcast,260,2013-02-12 05:53:00
1:05 AM,32.0,21.2,64,29.97,10.0,West,19.6,25.3,N/A,,Overcast,260,2013-02-12 06:05:00
1:51 AM,30.2,23.0,75,29.98,10.0,West,20.7,-,N/A,,Overcast,270,2013-02-12 06:51:00
1:53 AM,30.9,23.0,72,29.99,10.0,West,17.3,-,N/A,,Overcast,270,2013-02-12 06:53:00
2:46 AM,30.2,21.2,69,29.99,10.0,West,19.6,25.3,N/A,,Overcast,260,2013-02-12 07:46:00
2:53 AM,30.9,21.9,69,30.01,10.0,West,18.4,25.3,N/A,,Overcast,260,2013-02-12 07:53:00
3:53 AM,30.9,21.9,69,30.02,10.0,West,17.3,-,N/A,,Overcast,280,2013-02-12 08:53:00
4:20 AM,30.2,21.2,69,30.01,10.0,West,15.0,-,N/A,,Overcast,270,2013-02-12 09:20:00
4:53 AM,30.9,23.0,72,30.03,10.0,West,11.5,-,N/A,,Overcast,270,2013-02-12 09:53:00
5:53 AM,30.9,23.0,72,30.04,10.0,West,12.7,-,N/A,,Overcast,270,2013-02-12 10:53:00
6:53 AM,30.9,23.0,72,30.06,10.0,West,10.4,19.6,N/A,,Overcast,260,2013-02-12 11:53:00
7:53 AM,30.0,21.9,72,30.08,10.0,West,11.5,-,N/A,,Overcast,270,2013-02-12 12:53:00
8:53 AM,30.0,23.0,75,30.09,10.0,WSW,15.0,-,N/A,,Overcast,250,2013-02-12 13:53:00
9:53 AM,30.9,21.9,69,30.10,-9999.0,West,16.1,-,N/A,,Overcast,260,2013-02-12 14:53:00
10:53 AM,30.9,21.9,69,30.09,10.0,West,12.7,-,0.03,,Overcast,270,2013-02-12 15:53:00
11:53 AM,33.1,23.0,66,30.07,10.0,West,9.2,-,N/A,,Overcast,260,2013-02-12 16:53:00
12:53 PM,33.1,24.1,70,30.04,10.0,WSW,8.1,-,N/A,,Mostly Cloudy,250,2013-02-12 17:53:00
1:00 PM,33.8,24.8,70,30.02,10.0,WSW,10.4,-,N/A,,Scattered Clouds,250,2013-02-12 18:00:00
1:53 PM,36.0,24.1,62,29.99,10.0,WSW,8.1,-,N/A,,Partly Cloudy,250,2013-02-12 18:53:00
2:53 PM,37.0,25.0,62,29.99,10.0,WSW,11.5,-,N/A,,Clear,250,2013-02-12 19:53:00
3:53 PM,39.0,27.0,62,29.99,10.0,WSW,12.7,-,N/A,,Clear,250,2013-02-12 20:53:00
4:53 PM,37.9,27.0,65,29.98,10.0,WSW,10.4,-,N/A,,Clear,240,2013-02-12 21:53:00
5:53 PM,35.1,27.0,72,29.98,10.0,West,8.1,-,N/A,,Clear,270,2013-02-12 22:53:00
6:53 PM,33.1,27.0,78,29.97,10.0,WNW,4.6,-,N/A,,Clear,290,2013-02-12 23:53:00
7:53 PM,33.1,27.0,78,29.96,10.0,NW,3.5,-,N/A,,Clear,320,2013-02-13 00:53:00
8:53 PM,30.0,25.0,82,29.95,10.0,WNW,6.9,-,N/A,,Clear,290,2013-02-13 01:53:00
9:53 PM,28.9,25.0,85,29.95,10.0,WNW,5.8,-,N/A,,Clear,290,2013-02-13 02:53:00
10:53 PM,27.0,23.0,85,29.94,9.0,West,4.6,-,N/A,,Clear,280,2013-02-13 03:53:00
11:53 PM,28.0,24.1,85,29.93,8.0,WSW,3.5,-,N/A,,Clear,250,2013-02-13 04:53:00